Regional Weather Roundup
Issued by NWS

Home | Current Version | Previous Version | Text Only | Print | Product List | Glossary Off
Versions: 1 2 3 4 5 6 7 8 9 10 11 12 13 14 15 16 17 18 19 20 21 22 23 24 25 26 27 28 29 30 31 32 33 34 35 36 37 38 39 40 41 42 43 44 45 46 47 48 49 50

000
ASUS43 KLOT 272200
RWRIL

ILLINOIS REGIONAL WEATHER ROUNDUP
NATIONAL WEATHER SERVICE CHICAGO/ROMEOVILLE IL
400 PM CST SAT DEC 27 2014

NOTE: "FAIR" INDICATES FEW OR NO CLOUDS BELOW 12,000 FEET WITH NO
SIGNIFICANT WEATHER AND/OR OBSTRUCTIONS TO VISIBILITY.

* THESE STATIONS ARE NOT UNDER NWS QUALITY CONTROL. THEY ALSO MAY NOT
  REPORT WEATHER SUCH AS PRECIPITATION OR FOG.

ILZ001-002-007-009-015-016-024-272300-
NORTHWEST ILLINOIS

CITY           SKY/WX    TMP DP  RH WIND       PRES   REMARKS
MOLINE         CLOUDY    33  24  69 W12       30.13R WCI  24
STERLING*      CLOUDY    34  25  69 NW17G23   30.10R WCI  23
$$

ILZ003-004-008-010-011-017-018-272300-
NORTH CENTRAL ILLINOIS

CITY           SKY/WX    TMP DP  RH WIND       PRES   REMARKS
ROCKFORD       CLOUDY    34  25  69 W14       30.08R WCI  25
$$

ILZ005-006-012>014-019>023-272300-
NORTHEAST ILLINOIS

CITY           SKY/WX    TMP DP  RH WIND       PRES   REMARKS
CHICAGO-OHARE  CLOUDY    35  28  75 W17G26    30.02R WCI  25
CHICAGO-MIDWAY CLOUDY    38  29  70 W15G26    30.02F WCI  29
AURORA         CLOUDY    35  27  72 W18       30.05F WCI  24
WAUKEGAN       CLOUDY    35  27  72 W9G20     30.00R WCI  28
DUPAGE AIRPORT CLOUDY    34  27  75 W17G26    30.03F WCI  23
WHEELING       CLOUDY    35  28  75 W15G28    30.04R WCI  25
NORTHERLY ISL    N/A     37  29  73 W15         N/A  WCI  28
$$

LMZ740>746-272300-
SOUTHERN LAKE MICHIGAN

STATION/POSITION SKY/WX   TEMP    WIND        PRES    VSBY  WAVE
                          AIR SEA DIR/SP/G                  HT/PER
                          (F)     (DEG/KT/KT) (MB)    (MI)  (FT/S)
WAUKEGAN HARBOR            35     260/ 21/ 31   N/A
HARRISON CRIB              37     250/ 23/ 27   N/A
BURNHAM HARBOR             37     270/ 14/ 22   N/A
CALUMET HARBOR             38     230/ 11/ 21 1015.9R
MICHIGAN CITY              38     220/ 24/ 27   N/A
$$

ILZ025>027-034>036-040-047-049-050-058-095>099-272300-
WEST-CENTRAL ILLINOIS

CITY           SKY/WX    TMP DP  RH WIND       PRES   REMARKS
QUINCY         CLOUDY    35  27  72 NW14      30.15S WCI  26
MACOMB*        CLOUDY    33  28  82 W17       30.18R WCI  23
$$

ILZ028>032-037-038-041>044-048-051>054-059>061-272300-
CENTRAL ILLINOIS

CITY           SKY/WX    TMP DP  RH WIND       PRES   REMARKS
DECATUR        LGT RAIN  37  34  89 NW9       30.13R WCI  30
PEORIA         CLOUDY    36  27  69 W10       30.15R WCI  28
LINCOLN*       CLOUDY    37  35  91 W6        30.14R WCI  32
SPRINGFIELD    LGT RAIN  37  34  89 W12       30.15R WCI  29
TAYLORVILLE    NOT AVBL
$$

ILZ033-039-045-046-055>057-062-063-272300-
EAST-CENTRAL ILLINOIS

CITY           SKY/WX    TMP DP  RH WIND       PRES   REMARKS
CHAMPAIGN      LGT RAIN  38  35  89 W15       30.09F WCI  29
MATTOON        CLOUDY    40  37  89 NW12      30.09R
$$

ILZ079-100>102-272300-
SOUTHWEST ILLINOIS

CITY           SKY/WX    TMP DP  RH WIND       PRES   REMARKS
BELLEVILLE     LGT RAIN  40  39  99 NW8       30.14F
CAHOKIA*       LGT RAIN  40  36  86 NW9       30.15R
$$

ILZ064>066-069>071-074>076-080>082-084>086-088>090-092>094-272300-
SOUTH-CENTRAL ILLINOIS

CITY           SKY/WX    TMP DP  RH WIND       PRES   REMARKS
CARBONDALE     CLOUDY    44  41  89 N7        30.12S FOG
MARION         CLOUDY    46  45  93 NW12      30.13R FOG
MT. VERNON     CLOUDY    43  37  81 CALM      30.13R
$$

ILZ067-068-072-073-078-083-087-091-272300-
SOUTHEAST ILLINOIS

CITY           SKY/WX    TMP DP  RH WIND       PRES   REMARKS
LAWRENCEVILLE  CLOUDY    49  49 100 S5        30.09F FOG
$$

ABBREVIATIONS USED IN REMARKS
   TC - TEMPERATURE IN CELSIUS
  WCI - WIND CHILL INDEX
   HX - HEAT INDEX
  VSB - VISIBILITY
$$




USA.gov is the U.S. government's official web portal to all federal, state and local government web resources and services.